Location: Aufkirchen
(47.9603°N, 11.3653°E)
Time: 11:48:35
(UTC+01:00)

Tiros 1 - Pass Details

Date: 26 November 2020
Orbit: 630 x 663 km, 48.4° (Epoch: 21 January)

Event Time Altitude Azimuth Distance (km) Brightness Sun altitude
Rises 14:55:32 0° 182° (S) 2,979 11.4 10.8°
Reaches altitude 10° 15:00:19 10° 139° (SE) 2,071 9.9 10.2°
Maximum altitude 15:00:52 10° 132° (SE) 2,060 9.8 10.2°
Drops below altitude 10° 15:01:24 10° 126° (SE) 2,072 9.7 10.1°
Sets 15:06:11 0° 83° (E) 2,984 10.1 9.6°
